Printer-friendly version

IAU Minor Planet Center

Minor Planet Center

MPEC 2005-M26 : COMET C/2005 K1 (SKIFF)

The following Minor Planet Electronic Circular may be linked-to from your own Web pages, but must not otherwise be redistributed electronically.


Read MPEC 2005-M25 Read MPEC 2005-M27


M.P.E.C. 2005-M26                                Issued 2005 June 20, 01:54 UT

     The Minor Planet Electronic Circulars contain information on unusual
         minor planets and routine data on comets.  They are published
   on behalf of Commission 20 of the International Astronomical Union by the
          Minor Planet Center, Smithsonian Astrophysical Observatory,
                          Cambridge, MA 02138, U.S.A.

                  Supported in part by the Brinson Foundation
             Prepared using the Tamkin Foundation Computer Network

                              MPC@CFA.HARVARD.EDU
          URL http://cfa-www.harvard.edu/iau/mpc.html  ISSN 1523-6714

                            COMET C/2005 K1 (SKIFF)

Observations:
    CK05K010  C2005 06 12.97067 17 11 35.68 +63 09 29.8          16.6 N EM026J97
    CK05K010  C2005 06 13.26035 17 11 09.22 +63 06 52.8          17.9 T EM026704
    CK05K010  C2005 06 13.27004 17 11 08.14 +63 06 46.8          18.4 T EM026704
    CK05K010  C2005 06 13.27995 17 11 07.27 +63 06 40.7          18.3 T EM026704
    CK05K010  C2005 06 13.28430 17 11 06.50 +63 06 41.3          16.7 T EM026699
    CK05K010  C2005 06 13.28965 17 11 06.58 +63 06 33.5          18.5 T EM026704
    CK05K010  C2005 06 13.29955 17 11 05.38 +63 06 28.8          18.4 T EM026704
    CK05K010  C2005 06 13.30593 17 11 04.94 +63 06 26.5                 EM026699
    CK05K010  C2005 06 13.32763 17 11 02.82 +63 06 15.4                 EM026699
    CK05K010  C2005 06 13.34931 17 11 00.59 +63 06 04.3                 EM026699
    CK05K010  C2005 06 16.28576 17 06 37.09 +62 37 28.9          17.5 T EM026673
    CK05K010  C2005 06 16.29236 17 06 36.51 +62 37 25.0                 EM026673
    CK05K010  C2005 06 16.29861 17 06 35.92 +62 37 21.1                 EM026673
    CK05K010  C2005 06 16.30544 17 06 35.30 +62 37 17.1                 EM026673
    CK05K010  C2005 06 16.96877 17 05 36.85 +62 30 27.0          16.6 N EM026213
    CK05K010  C2005 06 16.97537 17 05 36.31 +62 30 22.0          16.6 N EM026213
    CK05K010  C2005 06 16.97763 17 05 35.97 +62 30 21.0          16.6 N EM026213
    CK05K010  C2005 06 17.05323 17 05 29.41 +62 29 32.5          16.8 N EM026945
    CK05K010  C2005 06 17.05591 17 05 29.26 +62 29 30.7          16.8 N EM026945
    CK05K010  C2005 06 17.05869 17 05 28.87 +62 29 29.1          16.8 N EM026945
    CK05K010  C2005 06 17.06147 17 05 28.71 +62 29 27.7          16.7 N EM026945
    CK05K010  C2005 06 17.06450 17 05 28.38 +62 29 25.0          16.8 N EM026945
    CK05K010  C2005 06 18.07071 17 04 00.98 +62 18 44.2          16.7 N EM026232
    CK05K010  C2005 06 18.07315 17 04 00.81 +62 18 42.0          16.7 N EM026232

Observer details:
213 Observatorio Montcabre.  Observer R. Naves.  Measurer M. Campas.  0.30-m
    f/5.9 Schmidt-Cassegrain + CCD.
232 Masquefa Observatory.  Observer E. Reina.  0.25-m f/3.3 Schmidt-Cassegrain
    + CCD.
673 Table Mountain Observatory, Wrightwood.  Observer J. Young.  0.6-m
    reflector + CCD.
699 Lowell Observatory-LONEOS.  Observer B. A. Skiff.  0.59-m LONEOS Schmidt
    + CCD.
704 Lincoln Laboratory ETS, New Mexico.  Observers M. Blythe, F. Shelly,
    M. Bezpalko, R. Huber, L. Manguso, D. Torres, R. Kracke, M. McCleary,
    H. Stange, A. Milner.  Measurers J. Stuart, R. Sayer, J. Evans, J. Kommers.
    1.0-m f/2.15 reflector + CCD.
945 Observatorio Monte Deva.  Observer J. R. Vidal.  0.36-m f/4.48
    Schmidt-Cassegrain + CCD.
J97 Alginet.  Observer T. Climent G.  0.25-m f/4 Schmidt-Cassegrain + CCD.

Orbital elements:
    C/2005 K1 (Skiff)
T 2005 Nov. 20.7589 TT                                  MPC
q   3.694042             (2000.0)            P               Q
                   Peri.  134.8284      +0.0537838      +0.3432284
                   Node   106.3403      -0.9352450      -0.3117340
e   1.0            Incl.   77.7366      +0.3498914      -0.8860114
From 193 observations 2005 May 16-June 18.

Brian G. Marsden             (C) Copyright 2005 MPC           M.P.E.C. 2005-M26

Read MPEC 2005-M25 Read MPEC 2005-M27


Our Web policy. Index to the CBAT/MPC/ICQ pages.


Valid HTML 4.01!